Disclaimer

Please do not use the information listed here in-flight or in-navigation, as they are not provided to us by the airports but are provided by volunteers, so they might be outdated.

Search


Regions


Airport information page

No radio frequency information is available.

Airport informations:
Latitude: 65° 52' 31.17" N
Longitude: 020° 08' 59.70" E
Elevation: 597 feet - 182 meters
Operating hours: Remarks
Operating agency: Military
Timezone: UTC+1(+2DT) - Last Sunday in March to last Sunday in October
Fuel: Jet fuel avaiable but type is unknown.

Runway information:
11/29 - 7316 x 115 feet< - >2230 x 35 meters

Recent METARs:
ESPE 221850Z AUTO 00000KT 9999 NCD M26/M29 Q1005
ESPE 221920Z AUTO 00000KT 9999 NCD M27/M29 Q1005
ESPE 221950Z AUTO 27001KT 9999 BKN014/// M29/M32 Q1005

Airport on the map: